Portada
METAR-TAF:

METAR-TAF

Aeroports :

Tottori, Japó

latitud: 35-32N, longitud: 134-10E, altitud: 15 m

Observació

L'informe es va fer fa 46 minuts, a les 05:00 UTC
Vent 10 kt del Oest/Nord-Oest
Temperatura 15°C
Humitat 48%
Pressió 1019 hPa
Visibilitat 10 km o més
Escasses núvols a una alçada de 4500 ft

METAR: RJOR 150500Z 29010KT 9999 FEW045 15/04 Q1019

Hora: 14:46 (05:46 UTC)


TAF: manca

Observacions i pronòstics meteorològics de més de 4000 aeroports (METAR i TAF).

Les estacions disponibles són els punts grocs i vermells al mapa.

Posi el ratolí al punt desitjat per veure el nom de l'estació.

Feu clic per veure les observacions i els pronòstics meteorològics.

Per canviar el mapa: feu clic els botons verds amb una creu de color negre per apropar; al botó verd amb un guió per allunyar la imatge; o en les fletxes verdes per a mapes adjacents.


METAR-TAF: